Saginaw, Michigan, United States (48601)
Lat: 43.42N, Lon: 83.95W
Wx Zone: MIZ053
Local Info
Past Weather Observations for Today

NOTE: This archive is for the closest National Weather Service station to Saginaw. Information may differ from the station used for current weather conditions.

Click here for Long-term Archive

Time Weather Temperature Dewpoint Humidity Pressure Winds Precip Visibility
18:53
Clear
73°F / 23°C 68°F / 20°C 83% 30.01 in
(1016 mb)
SSW 3.5 mph
(SSW 6 kph)
- 10SM
18:33
Partly Cloudy
75°F / 24°C 68°F / 20°C 78% 30.01 in
(1016 mb)
SSW 3.5 mph
(SSW 6 kph)
- 10SM
18:13
Mostly Cloudy
75°F / 24°C 68°F / 20°C 78% 30.01 in
(1016 mb)
SW 4.6 mph
(SW 7 kph)
- 10SM
17:53
Partly Cloudy
77°F / 25°C 68°F / 20°C 74% 30.01 in
(1016 mb)
SSW 4.6 mph
(SSW 7 kph)
- 10SM
17:33
Partly Cloudy
77°F / 25°C 70°F / 21°C 79% 30.01 in
(1016 mb)
SW 3.5 mph
(SW 6 kph)
- 10SM
17:13
Partly Cloudy
77°F / 25°C 68°F / 20°C 74% 30.01 in
(1016 mb)
SW 3.5 mph
(SW 6 kph)
- 10SM
16:53
Mostly Cloudy
77°F / 25°C 68°F / 20°C 74% 30.01 in
(1016 mb)
SW 3.5 mph
(SW 6 kph)
- 10SM
16:33
Mostly Cloudy
77°F / 25°C 68°F / 20°C 74% 30.01 in
(1016 mb)
W 3.5 mph
(W 6 kph)
- 7SM
16:13
Partly Cloudy
79°F / 26°C 68°F / 20°C 70% 30.01 in
(1016 mb)
SSW 4.6 mph
(SSW 7 kph)
- 10SM
15:53
Partly Cloudy
79°F / 26°C 68°F / 20°C 70% 30.01 in
(1016 mb)
W 5.8 mph
(W 9 kph)
- 10SM
15:33
Mostly Cloudy
77°F / 25°C 68°F / 20°C 74% 30.04 in
(1017 mb)
SSW 3.5 mph
(SSW 6 kph)
- 7SM
15:13
Partly Cloudy
79°F / 26°C 68°F / 20°C 70% 30.04 in
(1017 mb)
W 4.6 mph
(W 7 kph)
- 10SM
14:53
Mostly Cloudy
77°F / 25°C 70°F / 21°C 79% 30.04 in
(1017 mb)
SW 4.6 mph
(SW 7 kph)
- 7SM
14:33
Overcast
73°F / 23°C 68°F / 20°C 83% 30.04 in
(1017 mb)
SW 5.8 mph
(SW 9 kph)
- 7SM
14:13
Overcast
73°F / 23°C 68°F / 20°C 83% 30.04 in
(1017 mb)
SW 4.6 mph
(SW 7 kph)
- 7SM
13:53
Overcast
75°F / 24°C 70°F / 21°C 83% 30.04 in
(1017 mb)
SSE 3.5 mph
(SSE 6 kph)
- 7SM
13:33
Overcast
73°F / 23°C 68°F / 20°C 83% 30.04 in
(1017 mb)
Calm - 10SM
13:13
Overcast
73°F / 23°C 68°F / 20°C 83% 30.06 in
(1018 mb)
Calm - 10SM
12:53
Overcast
73°F / 23°C 68°F / 20°C 83% 30.06 in
(1018 mb)
Calm - 10SM
12:33
Overcast
73°F / 23°C 68°F / 20°C 83% 30.06 in
(1018 mb)
Calm - 7SM
12:13
Overcast
72°F / 22°C 66°F / 19°C 83% 30.06 in
(1018 mb)
Calm - 7SM
11:53
Overcast
73°F / 23°C 68°F / 20°C 83% 30.06 in
(1018 mb)
SSW 3.5 mph
(SSW 6 kph)
- 7SM
11:33
Overcast
72°F / 22°C 66°F / 19°C 83% 30.06 in
(1018 mb)
Calm - 7SM
11:13
Overcast
72°F / 22°C 66°F / 19°C 83% 30.06 in
(1018 mb)
Calm - 7SM
10:53
Overcast
72°F / 22°C 66°F / 19°C 83% 30.06 in
(1018 mb)
Calm - 7SM
10:33
Overcast
72°F / 22°C 66°F / 19°C 83% 30.06 in
(1018 mb)
Calm - 7SM
10:13
Overcast
72°F / 22°C 66°F / 19°C 83% 30.06 in
(1018 mb)
Calm - 7SM
09:53
Mostly Cloudy
72°F / 22°C 68°F / 20°C 88% 30.06 in
(1018 mb)
Calm - 7SM
09:33
Mostly Cloudy
Fog And Mist
70°F / 21°C 66°F / 19°C 88% 30.06 in
(1018 mb)
Calm - 5SM
09:13
Mostly Cloudy
Fog And Mist
68°F / 20°C 66°F / 19°C 94% 30.06 in
(1018 mb)
Calm - 5SM
08:53
Overcast
Fog And Mist
68°F / 20°C 66°F / 19°C 94% 30.06 in
(1018 mb)
Calm - 5SM
08:33
Overcast
Fog And Mist
68°F / 20°C 64°F / 18°C 88% 30.06 in
(1018 mb)
Calm - 4SM
08:13
Overcast
Fog And Mist
66°F / 19°C 64°F / 18°C 94% 30.06 in
(1018 mb)
Calm - 3SM
07:53
Overcast
Fog And Mist
64°F / 18°C 64°F / 18°C 100% 30.06 in
(1018 mb)
Calm - 3SM
07:33
Overcast
Fog And Mist
64°F / 18°C 63°F / 17°C 94% 30.06 in
(1018 mb)
Calm - 3SM
07:13
Overcast
Fog And Mist
64°F / 18°C 63°F / 17°C 94% 30.06 in
(1018 mb)
Calm - 2 1/2SM
06:53
Overcast
Fog And Mist
64°F / 18°C 63°F / 17°C 94% 30.06 in
(1018 mb)
Calm - 2SM
06:33
Overcast
Fog And Mist
63°F / 17°C 63°F / 17°C 100% 30.06 in
(1018 mb)
Calm - 2SM
06:13
Overcast
Fog And Mist
63°F / 17°C 63°F / 17°C 100% 30.06 in
(1018 mb)
Calm - 2SM
05:53
Overcast
Fog And Mist
63°F / 17°C 63°F / 17°C 100% 30.06 in
(1018 mb)
E 4.6 mph
(E 7 kph)
- 3SM
05:33
Overcast
Fog And Mist
63°F / 17°C 63°F / 17°C 100% 30.06 in
(1018 mb)
E 3.5 mph
(E 6 kph)
- 4SM
05:13
Overcast
Fog And Mist
63°F / 17°C 63°F / 17°C 100% 30.04 in
(1017 mb)
NE 3.5 mph
(NE 6 kph)
- 3SM
04:53
Overcast
Fog And Mist
63°F / 17°C 63°F / 17°C 100% 30.04 in
(1017 mb)
NE 3.5 mph
(NE 6 kph)
- 3SM
04:33
Overcast
Fog And Mist
63°F / 17°C 63°F / 17°C 100% 30.04 in
(1017 mb)
NE 3.5 mph
(NE 6 kph)
- 3SM
04:13
Overcast
Fog And Mist
63°F / 17°C 63°F / 17°C 100% 30.04 in
(1017 mb)
NE 3.5 mph
(NE 6 kph)
- 3SM
03:53
Overcast
Drizzle
63°F / 17°C 63°F / 17°C 100% 30.04 in
(1017 mb)
Calm - 3SM
03:33
Overcast
Fog And Mist
63°F / 17°C 63°F / 17°C 100% 30.04 in
(1017 mb)
Calm - 4SM
03:13
Overcast
Fog And Mist
63°F / 17°C 63°F / 17°C 100% 30.04 in
(1017 mb)
Calm - 4SM
02:53
Overcast
Fog And Mist
63°F / 17°C 63°F / 17°C 100% 30.04 in
(1017 mb)
Calm - 4SM
02:33
Overcast
Fog And Mist
63°F / 17°C 63°F / 17°C 100% 30.04 in
(1017 mb)
Calm - 3SM
02:13
Overcast
Fog And Mist
63°F / 17°C 63°F / 17°C 100% 30.04 in
(1017 mb)
Calm - 3SM
01:53
Overcast
Fog And Mist
63°F / 17°C 63°F / 17°C 100% 30.04 in
(1017 mb)
Calm - 4SM
01:33
Overcast
Fog And Mist
63°F / 17°C 63°F / 17°C 100% 30.06 in
(1018 mb)
Calm - 4SM
01:13
Overcast
Fog And Mist
63°F / 17°C 63°F / 17°C 100% 30.06 in
(1018 mb)
NE 3.5 mph
(NE 6 kph)
- 3SM
00:53
Overcast
Fog And Mist
63°F / 17°C 63°F / 17°C 100% 30.06 in
(1018 mb)
ENE 3.5 mph
(ENE 6 kph)
- 4SM
00:33
Overcast
Fog And Mist
63°F / 17°C 63°F / 17°C 100% 30.06 in
(1018 mb)
E 3.5 mph
(E 6 kph)
- 3SM
00:13
Overcast
Fog And Mist
63°F / 17°C 63°F / 17°C 100% 30.06 in
(1018 mb)
Calm - 3SM
Time Weather Temperature Dewpoint Humidity Pressure Winds Precip Visibility


Weather for websites

WeatherForYou.com, LLC is not responsible for any damages or problems caused by this service. Current weather conditions are obtained from the closest station including government and personal stations which may have varying degrees of accuracy. Weather forecasts are derived from the NOAA NDFD. Like all things, this site belongs to Jesus Christ... He just trusts us to maintain it. If you have any questions or comments email webmaster@weatherforyou.com

Copyright © 2015, WeatherForYou.com LLC. All rights reserved.